Location: Wells
(51.2093°N, 2.6446°W)
Time: 07:34:49
(UTC+01:00)

PCSat - Pass Details

Date: 17 March 2026
Orbit: 780 x 790 km, 67.1° (Epoch: 13 April)

Event Time Altitude Azimuth Distance (km) Brightness Sun altitude
Exits shadow 22:55:20 12° 35° (NE) 2,252 12.2 -36.8°
Drops below altitude 10° 22:55:38 10° 35° (NE) 2,364 12.3 -36.9°
Sets 22:58:04 0° 38° (NE) 3,297 13.1 -37.0°
